Paris, France

10:33 AM CET on December 11, 2016 (GMT +0100)
Orly

Weather History for LFPO - March, 2013

Change the Weather History Date:

Saturday, March 2, 2013

  Actual Average Record
Temperature  
Mean Temperature 35 °F -  
Max Temperature 37 °F 53 °F 59 °F (2008)
Min Temperature 33 °F 38 °F 24 °F (2004)
Degree Days  
Heating Degree Days 30    
Moisture  
Dew Point 27 °F    
Average Humidity 71    
Maximum Humidity 75    
Minimum Humidity 61    
Precipitation  
Precipitation 0.00 in - - ()
Sea Level Pressure  
Sea Level Pressure 30.25 in    
Wind  
Wind Speed 9 mph ()    
Max Wind Speed 13 mph    
Max Gust Speed -    
Visibility 5.8 miles    
Events      
Averages and records for this station are not official NWS values.
T = Trace of Precipitation, MM = Missing Value Source: Averaged Metar Reports

Daily Weather History Graph

Daily Weather History Graph

Search for Another Location

Airport or City:

Trip Planner

Search our weather history database for the weather conditions in past years. The results will help you decide how hot, cold, wet, or windy it might be!

Date:

Astronomy

Mar. 02, 2013 Rise Set
Actual Time 7:30 AM CET 6:35 PM CET
Civil Twilight 6:58 AM CET 7:07 PM CET
Nautical Twilight 6:22 AM CET 7:43 PM CET
Astronomical Twilight 5:45 AM CET 8:20 PM CET
Moon No Moon Rise 9:19 AM CET (3/2)
Length of Visible Light 12h 08m
Length of Day
11h 05m
Waning Gibbous, 76% of the Moon is Illuminated
Mar 2
Waning Gibbous
Mar 4
Last Quarter
Mar 11
New
Mar 19
First Quarter
Mar 27
Full

Hourly Weather History & Observations

Time (CET) Temp. Windchill Dew Point Humidity Pressure Visibility Wind Dir Wind Speed Gust Speed Precip Events Conditions
12:00 AM 37.4 °F 29.8 °F 30.2 °F 75% 30.27 in 6.2 mi NE 11.5 mph - N/A   Overcast
12:30 AM 37.4 °F 29.8 °F 30.2 °F 75% 30.27 in 6.2 mi NE 11.5 mph - N/A   Overcast
1:00 AM 38 °F - 30 °F 64% 30.29 in 6 mi NE 12.7 mph - -   Overcast
1:00 AM 37.4 °F 29.3 °F 30.2 °F 75% 30.27 in 6.2 mi NE 12.7 mph - N/A   Overcast
1:30 AM 37.4 °F 30.8 °F 30.2 °F 75% 30.24 in 6.2 mi NE 9.2 mph - N/A   Overcast
2:00 AM 37.4 °F 29.8 °F 30.2 °F 75% 30.24 in 5.6 mi NNE 11.5 mph - N/A   Overcast
2:30 AM 37.4 °F 30.3 °F 30.2 °F 75% 30.27 in 6.2 mi NE 10.4 mph - N/A   Overcast
3:00 AM 35.6 °F 27.5 °F 28.4 °F 75% 30.24 in 6.2 mi NE 11.5 mph - N/A   Overcast
3:30 AM 35.6 °F 27.5 °F 28.4 °F 75% 30.24 in 6.2 mi NNE 11.5 mph - N/A   Overcast
4:00 AM 35.6 °F 28.0 °F 28.4 °F 75% 30.24 in 6.2 mi NE 10.4 mph - N/A   Overcast
4:30 AM 35.6 °F 27.5 °F 28.4 °F 75% 30.27 in 6.2 mi NE 11.5 mph - N/A   Overcast
5:00 AM 33.8 °F 24.8 °F 26.6 °F 75% 30.27 in 6.2 mi ENE 12.7 mph - N/A   Overcast
5:30 AM 33.8 °F 25.8 °F 26.6 °F 75% 30.27 in 6.2 mi NE 10.4 mph - N/A   Overcast
6:00 AM 33.8 °F 25.8 °F 26.6 °F 75% 30.27 in 6.2 mi NE 10.4 mph - N/A   Overcast
6:30 AM 33.8 °F 26.4 °F 26.6 °F 75% 30.27 in 6.2 mi ENE 9.2 mph - N/A   Overcast
7:00 AM 34 °F - 27 °F 66% 30.29 in 7 mi ENE 11.5 mph - -   Overcast
7:00 AM 33.8 °F 25.3 °F 26.6 °F 75% 30.24 in 6.2 mi ENE 11.5 mph - N/A   Overcast
7:30 AM 33.8 °F 25.8 °F 26.6 °F 75% 30.27 in 6.2 mi NE 10.4 mph - N/A   Overcast
8:00 AM 33.8 °F 25.8 °F 26.6 °F 75% 30.27 in 6.2 mi NE 10.4 mph - N/A   Overcast
8:30 AM 33.8 °F 26.4 °F 26.6 °F 75% 30.27 in 6.2 mi ENE 9.2 mph - N/A   Overcast
9:00 AM 33.8 °F 25.3 °F 26.6 °F 75% 30.27 in 6.2 mi ENE 11.5 mph - N/A   Overcast
9:30 AM 33.8 °F 27.0 °F 26.6 °F 75% 30.27 in 6.2 mi NE 8.1 mph - N/A   Overcast
10:00 AM 35.6 °F 28.6 °F 26.6 °F 70% 30.27 in 6.2 mi NE 9.2 mph - N/A   Overcast
10:30 AM 35.6 °F 29.2 °F 26.6 °F 70% 30.27 in 6.2 mi East 8.1 mph - N/A   Overcast
11:00 AM 35.6 °F 28.6 °F 26.6 °F 70% 30.27 in 6.2 mi ENE 9.2 mph - N/A   Overcast
11:30 AM 35.6 °F 28.6 °F 26.6 °F 70% 30.27 in 6.2 mi ENE 9.2 mph - N/A   Overcast
12:00 PM 35.6 °F 29.2 °F 26.6 °F 70% 30.27 in 6.2 mi East 8.1 mph - N/A   Overcast
12:30 PM 35.6 °F 29.2 °F 26.6 °F 70% 30.27 in 6.2 mi ENE 8.1 mph - N/A   Overcast
1:00 PM 35.6 °F 28.6 °F 28.4 °F 75% 30.27 in 6.2 mi ENE 9.2 mph - N/A   Overcast
1:30 PM 37.4 °F 31.4 °F 28.4 °F 70% 30.24 in 6.2 mi NE 8.1 mph - N/A   Overcast
2:00 PM 37.4 °F 31.4 °F 26.6 °F 65% 30.24 in 6.2 mi NE 8.1 mph - N/A   Overcast
2:30 PM 37.4 °F 32.1 °F 28.4 °F 70% 30.24 in 6.2 mi NE 6.9 mph - N/A   Mostly Cloudy
3:00 PM 37.4 °F 31.4 °F 26.6 °F 65% 30.24 in 6.2 mi NE 8.1 mph - N/A   Mostly Cloudy
3:30 PM 37.4 °F 31.4 °F 26.6 °F 65% 30.24 in 6.2 mi NE 8.1 mph - N/A   Mostly Cloudy
4:00 PM 37.4 °F 30.8 °F 26.6 °F 65% 30.24 in 6.2 mi NE 9.2 mph - N/A   Mostly Cloudy
4:30 PM 37.4 °F 31.4 °F 26.6 °F 65% 30.21 in 6.2 mi NE 8.1 mph - N/A   Mostly Cloudy
5:00 PM 37.4 °F 31.4 °F 28.4 °F 70% 30.21 in 6.2 mi ENE 8.1 mph - N/A   Mostly Cloudy
5:30 PM 37.4 °F 32.1 °F 26.6 °F 65% 30.21 in 6.2 mi NE 6.9 mph - N/A   Mostly Cloudy
6:00 PM 37.4 °F 31.4 °F 26.6 °F 65% 30.21 in 6.2 mi NE 8.1 mph - N/A   Mostly Cloudy
6:30 PM 35.6 °F 29.2 °F 26.6 °F 70% 30.21 in 5.6 mi ENE 8.1 mph - N/A   Overcast
7:00 PM 36 °F - 28 °F 61% 30.25 in 6 mi ENE 8.1 mph - -   Overcast
7:00 PM 35.6 °F 29.2 °F 28.4 °F 75% 30.21 in 5.6 mi ENE 8.1 mph - N/A   Overcast
7:30 PM 35.6 °F 29.2 °F 28.4 °F 75% 30.24 in 4.3 mi ENE 8.1 mph - N/A   Overcast
8:00 PM 35.6 °F 30.7 °F 26.6 °F 70% 30.24 in 4.3 mi ENE 5.8 mph - N/A   Overcast
8:30 PM 35.6 °F 29.2 °F 26.6 °F 70% 30.24 in 3.7 mi East 8.1 mph - N/A   Overcast
9:00 PM 35.6 °F 30.7 °F 26.6 °F 70% 30.24 in 3.7 mi NE 5.8 mph - N/A   Overcast
9:30 PM 35.6 °F 29.2 °F 26.6 °F 70% 30.24 in 3.7 mi NE 8.1 mph - N/A   Overcast
10:00 PM 35.6 °F 29.9 °F 26.6 °F 70% 30.24 in 3.7 mi ENE 6.9 mph - N/A   Overcast
10:30 PM 35.6 °F 29.2 °F 26.6 °F 70% 30.24 in 3.7 mi East 8.1 mph - N/A   Overcast
11:00 PM 35.6 °F 29.2 °F 26.6 °F 70% 30.24 in 3.7 mi NE 8.1 mph - N/A   Overcast
11:30 PM 35.6 °F 29.2 °F 26.6 °F 70% 30.24 in 3.7 mi East 8.1 mph - N/A   Overcast